SCP
0 0 0 0 0 0 0 0 0 0 1 1 1 1 1 2 2 2 2 1 1 1 0 0 0 1 1 1 1 1 1 1 0 0 0 0 0 1 1 1 0 0 0
0 0 0 0 0 0 0 0 0 0 0 1 1 1 1 1 2 2 2 1 1 1 0 0 0 1 1 1 1 1 1 1 0 0 0 0 0 1 1 1 1 1 1
0 0 0 0 0 0 0 0 0 0 0 0 0 1 1 1 1 2 1 1 1 1 0 0 0 0 1 1 1 1 1 1 0 0 0 0 0 1 1 1 1 1 1
0 0 0 1 1 1 1 1 1 0 0 0 0 0 1 1 1 1 1 1 1 1 0 0 0 0 0 1 1 1 1 1 0 0 0 0 0 0 1 1 1 1 1
0 0 1 1 1 1 1 1 1 1 0 0 0 0 1 1 1 1 1 1 1 1 0 0 0 0 0 0 1 1 1 0 0 0 0 0 0 0 0 1 1 1 1
0 0 1 1 1 1 1 1 1 1 1 0 0 0 1 1 1 1 1 1 1 1 0 0 0 0 0 0 1 1 1 0 0 0 0 0 0 0 0 1 1 1 1
0 0 1 1 1 1 1 1 1 1 1 1 0 0 1 1 1 1 1 1 1 1 0 0 0 0 0 0 1 1 1 0 0 0 0 0 0 0 0 0 1 1 1
0 0 1 1 1 1 1 1 1 1 1 1 1 0 1 1 1 1 1 1 1 1 0 0 1 0 1 1 1 1 1 0 0 0 0 0 0 0 0 0 0 1 1
1 1 1 1 1 1 1 1 1 1 1 1 1 1 1 1 1 1 1 0 1 1 0 0 0 0 1 1 1 1 1 0 0 0 0 0 0 0 0 0 0 1 1
0 0 0 0 1 1 1 1 1 1 0 0 1 1 1 1 1 1 0 0 0 0 0 0 0 0 1 1 1 1 0 0 0 0 0 0 0 0 0 0 0 0 1
0 0 0 0 0 0 1 1 1 0 0 0 0 0 0 0 0 0 0 0 0 0 0 0 0 0 0 0 0 0 0 0 0 0 0 0 0 0 0 0 0 0 0
0 0 0 0 0 0 0 0 0 0 0 0 0 0 0 0 0 0 0 0 0 0 0 0 0 0 0 0 0 0 0 0 0 0 0 0 0 0 0 0 0 0 0
0 0 0 0 0 0 0 0 0 0 0 0 0 0 0 0 0 0 0 0 0 0 0 0 0 0 0 0 0 0 0 0 0 0 0 0 0 0 0 0 0 0 0
0 0 0 0 0 0 0 0 0 0 0 0 0 0 0 0 0 0 0 0 0 0 0 0 0 0 0 0 0 0 0 0 0 0 0 0 0 0 0 0 1 1 1
0 0 0 0 0 0 0 0 0 0 0 0 0 0 0 0 0 0 0 0 0 0 0 0 0 0 0 0 0 0 0 0 0 0 0 0 1 1 1 1 1 1 1
0 0 0 0 0 0 0 0 0 0 0 0 0 0 0 0 0 0 0 0 0 0 0 0 0 0 0 0 0 0 0 0 0 0 0 0 1 1 1 1 1 1 0
1 0 0 0 0 0 0 0 0 0 0 0 0 0 0 0 0 0 0 0 0 0 0 0 0 0 0 0 0 0 0 0 0 0 0 0 0 1 1 1 1 0 0
1 1 1 0 0 0 0 0 0 0 0 0 0 0 0 0 0 0 0 0 0 0 0 0 0 0 0 0 0 0 0 0 0 0 0 0 0 0 1 1 1 1 0
1 1 1 1 0 0 0 0 0 0 0 0 0 0 0 0 0 0 0 0 0 0 0 0 0 0 0 0 0 0 0 0 0 0 0 0 0 0 0 1 1 1 0
1 1 1 1 0 0 0 0 0 0 0 0 0 0 0 0 0 0 0 0 0 0 0 0 0 0 0 0 0 0 0 0 0 0 0 0 0 0 0 0 0 0 0
1 1 1 1 0 0 0 0 0 0 0 0 0 0 0 0 0 0 0 0 0 0 0 0 0 0 0 0 0 0 0 0 0 0 0 0 0 0 0 0 0 0 0
1 1 1 1 1 0 0 0 0 0 0 0 0 0 0 0 0 0 0 0 0 0 0 0 0 0 0 0 0 0 0 0 0 0 0 0 0 0 0 0 0 0 0
1 1 1 1 1 0 0 0 0 0 0 0 0 0 0 0 0 0 0 0 0 0 0 0 0 0 0 0 0 0 0 0 0 0 0 0 0 0 0 0 0 0 0
1 1 1 1 1 1 0 0 0 0 0 0 0 0 0 0 0 0 0 0 0 0 0 0 0 0 0 0 0 0 0 0 0 0 0 0 0 0 0 0 0 0 0
1 1 1 1 1 1 1 0 0 0 0 0 0 0 0 0 0 0 0 0 0 0 0 0 0 0 0 0 0 0 0 0 0 0 0 0 0 0 0 0 0 0 0
1 1 1 1 1 1 1 0 0 0 0 0 0 0 0 0 0 0 0 0 0 0 0 0 0 0 0 0 0 0 0 0 0 0 0 0 0 0 0 0 0 0 0
Wind_Speed
1 1 7 8 8 9 9 9 10 10 10 10 11 11 11 11 12 12 11 11 11 11 11 11 11 11 11 11 10 9 9 9 9 9 8 8 8 8 8 8 7 5 8
4 3 8 8 8 9 9 9 9 10 10 10 10 11 11 11 11 11 11 11 10 10 10 10 10 10 10 10 10 10 10 9 8 8 8 7 7 7 7 7 7 5 8
6 4 6 8 8 8 8 9 9 10 10 10 10 10 10 10 10 10 10 10 10 10 10 10 10 10 10 10 10 10 10 10 9 8 7 3 4 6 7 7 7 7 7
6 4 5 8 8 8 9 9 9 9 10 10 10 10 9 10 10 10 10 10 10 10 10 9 9 9 9 9 10 10 10 11 10 8 4 3 3 6 7 7 7 7 8
6 4 6 9 9 9 9 9 9 9 9 9 9 9 9 10 9 9 9 9 9 9 9 9 9 9 9 9 10 10 10 10 10 7 4 3 2 7 8 7 7 8 7
6 4 6 10 10 9 9 9 9 9 9 9 9 9 9 9 9 9 9 9 9 9 9 8 8 9 9 10 10 11 11 10 8 5 4 3 2 7 8 8 7 8 8
5 4 5 9 9 9 9 8 8 9 8 9 9 9 9 9 9 9 9 9 8 8 8 8 8 9 9 10 11 11 11 10 6 4 4 3 4 7 8 8 8 8 8
7 5 4 8 9 9 9 8 8 8 8 9 9 9 9 9 9 8 8 8 8 8 8 7 7 8 9 9 10 11 11 9 7 5 4 3 6 8 8 8 8 8 8
6 5 3 3 5 8 8 8 7 7 8 9 9 9 8 8 7 7 7 7 7 7 7 6 7 7 8 9 10 11 11 11 5 3 4 3 7 8 8 8 8 8 8
5 4 4 3 2 2 3 6 6 6 7 7 7 7 7 6 6 6 5 6 6 6 5 5 5 6 7 8 9 10 10 8 5 4 2 3 8 9 9 8 8 8 8
4 4 4 3 3 2 2 4 4 5 5 5 4 5 4 2 2 2 3 4 5 5 4 4 4 5 6 7 9 10 7 3 4 3 2 6 9 9 9 9 9 8 8
4 4 4 4 4 3 3 2 1 1 1 1 1 2 1 1 1 1 2 3 3 3 3 3 4 5 4 3 6 7 3 4 3 2 3 8 10 10 10 10 9 9 9
5 4 5 5 4 3 2 2 1 1 1 1 1 2 2 1 1 1 1 1 1 2 2 3 3 3 2 2 3 3 3 3 2 2 4 9 10 10 10 10 10 10 10
4 4 5 5 4 3 2 2 1 1 1 1 1 2 2 2 1 1 1 0 0 1 1 1 1 2 2 3 4 4 4 3 2 2 4 9 10 10 10 10 10 10 10
5 4 4 5 4 4 3 2 2 1 1 1 1 1 3 2 2 1 1 1 1 1 1 1 2 3 3 3 4 5 4 3 3 3 3 9 10 9 9 9 10 10 10
5 5 4 4 4 4 3 3 2 1 1 1 1 1 3 2 2 2 2 2 1 1 2 2 3 3 3 3 4 3 3 3 3 3 3 4 8 9 9 9 9 10 10
4 4 4 4 4 4 3 3 3 2 2 1 1 2 2 3 3 3 2 2 2 2 3 3 4 3 4 4 4 3 2 2 3 3 3 2 3 7 9 9 9 9 9
4 4 4 4 4 4 3 3 2 2 2 1 1 1 2 3 3 3 3 2 2 2 3 3 3 3 3 3 2 2 2 2 3 2 2 2 2 3 5 8 8 8 8
5 5 4 4 4 4 3 2 2 2 2 1 1 1 1 3 3 3 3 2 3 3 3 3 3 3 3 2 2 2 2 2 2 3 2 2 2 2 2 4 6 7 7
4 4 4 5 4 4 3 2 2 2 2 2 1 1 2 2 3 3 3 3 3 3 2 2 3 2 2 2 3 3 2 2 2 2 2 2 2 3 2 3 3 4 6
4 5 4 5 3 3 2 2 2 1 1 1 1 2 3 3 3 3 3 3 3 3 2 3 3 3 2 2 3 3 3 3 3 2 2 2 2 2 2 2 2 2 2
4 5 4 4 4 3 2 2 2 2 1 1 1 2 3 3 2 3 3 3 2 3 3 2 3 2 1 1 3 2 2 4 3 3 2 2 2 2 2 2 2 2 2
4 5 5 5 4 3 3 3 3 3 3 2 2 2 2 3 3 3 3 3 3 3 3 2 2 3 2 0 1 3 3 2 1 3 2 2 2 2 1 2 3 3 2
5 5 4 4 4 3 4 4 4 3 2 1 1 1 2 2 3 3 3 3 3 2 2 2 2 2 3 1 0 0 2 4 3 0 2 2 2 2 2 2 2 2 2
4 5 4 4 4 3 4 5 5 3 2 1 1 2 2 2 2 2 3 3 3 2 2 2 2 2 2 2 1 1 1 2 2 3 0 2 2 2 1 1 1 1 1
4 4 4 5 3 3 4 4 5 5 4 3 2 2 1 1 1 1 2 2 2 2 2 2 2 2 2 2 2 2 2 2 2 2 2 1 1 1 1 1 1 0 1
Wind_Direction
162 165 120 109 106 103 101 99 99 98 100 100 97 94 92 90 90 89 89 88 86 84 83 80 79 78 77 75 76 78 79 78 76 73 74 74 73 71 76 84 90 90 102
156 141 122 113 109 107 105 103 103 101 101 101 99 99 96 95 94 92 91 89 86 85 83 81 80 77 74 72 71 72 73 75 75 71 69 70 75 77 78 84 90 97 106
128 121 120 115 114 110 106 106 107 103 103 103 103 102 100 97 96 94 93 91 88 85 83 82 80 76 72 70 71 70 69 70 71 71 65 53 69 83 83 86 88 92 99
128 124 118 115 112 109 107 106 107 108 107 107 108 107 105 101 97 96 94 92 89 85 84 82 79 76 72 70 69 67 68 70 69 66 57 47 56 85 87 88 89 91 94
125 125 124 116 111 109 107 105 107 108 110 111 111 110 106 103 100 99 97 94 92 87 85 82 78 76 73 70 68 66 69 68 66 58 54 45 47 85 86 86 87 91 93
127 127 129 121 117 113 109 109 110 111 110 110 113 112 109 105 102 102 100 98 95 92 88 84 80 78 73 71 69 67 68 67 63 54 49 44 56 84 84 84 86 89 92
132 131 131 127 123 119 114 110 109 110 114 113 114 115 112 108 105 103 102 100 98 95 91 85 80 77 72 72 70 67 67 70 64 56 46 44 66 81 83 85 86 85 86
138 135 132 133 129 123 119 114 110 110 116 118 118 117 114 110 109 106 104 103 102 98 93 87 82 78 72 68 68 67 68 72 70 64 53 50 72 77 77 82 82 85 85
137 132 128 130 126 126 126 121 114 112 116 119 118 118 117 116 115 115 111 109 106 102 96 90 83 76 72 67 66 68 72 72 60 48 61 54 72 78 78 79 81 81 83
138 140 143 137 122 118 127 137 133 131 131 129 125 125 125 124 123 122 116 114 109 104 99 92 83 76 72 72 72 72 69 63 47 42 33 65 76 80 80 81 82 80 82
146 156 159 159 156 154 158 157 150 146 143 137 135 142 129 104 101 117 130 127 115 105 96 85 81 70 67 71 74 74 67 52 43 38 33 71 78 80 80 81 82 83 81
161 169 168 172 173 176 177 147 163 165 155 144 148 155 146 143 148 148 151 141 125 100 72 68 66 58 58 63 70 72 65 55 44 38 56 72 76 78 81 82 82 85 82
168 165 167 179 173 169 166 155 159 156 165 180 180 160 143 129 121 109 88 58 52 61 35 39 41 50 63 78 80 80 75 64 48 35 56 74 75 76 78 81 83 83 81
153 157 162 169 168 174 161 154 149 147 162 164 170 150 132 129 122 122 114 115 71 50 54 46 60 68 81 89 97 93 84 74 59 43 59 73 75 75 76 77 80 80 80
154 161 163 160 164 163 149 158 135 140 148 138 112 126 133 135 135 131 119 108 98 81 86 81 78 79 87 90 100 103 96 89 74 60 54 69 71 72 76 79 81 79 79
163 167 165 160 160 151 151 149 143 146 136 108 111 125 131 126 134 133 118 100 86 90 99 94 88 83 82 86 86 94 102 101 84 74 59 57 64 67 69 75 79 80 79
162 158 157 160 148 142 146 150 148 151 138 137 135 120 119 120 130 128 117 101 89 86 88 84 75 73 78 78 76 79 93 100 96 83 70 46 46 59 65 69 73 77 79
150 143 153 148 131 131 128 128 132 133 133 141 129 115 123 122 123 118 114 104 99 91 87 87 78 75 71 70 66 66 75 89 94 93 79 61 49 50 56 65 67 70 73
155 145 143 128 126 125 113 106 104 102 108 112 104 104 116 117 122 120 116 110 107 96 85 97 85 95 93 77 68 63 58 74 88 97 93 80 69 63 53 58 61 62 66
151 140 133 126 129 122 101 80 74 74 74 81 89 108 121 114 114 117 116 108 106 98 84 88 95 83 95 97 80 61 40 44 68 81 103 93 80 77 70 57 42 40 52
135 130 136 132 132 117 99 91 94 88 80 78 84 95 107 110 113 114 117 113 114 113 122 117 105 93 80 91 82 46 17 26 47 52 69 86 84 81 77 64 53 43 34
149 140 143 150 147 139 134 134 129 121 103 93 77 68 85 101 115 122 121 124 123 118 107 102 108 107 95 96 113 98 30 5 6 21 35 72 76 67 73 71 51 50 38
156 160 160 159 156 152 134 105 82 65 50 44 44 39 51 90 101 115 124 123 130 130 137 137 135 138 150 329 115 136 141 192 319 350 21 41 50 55 50 53 52 38 43
171 162 155 154 150 144 131 125 127 124 127 168 146 90 63 85 101 109 117 121 124 123 134 153 149 147 146 170 5 79 148 152 145 355 346 8 35 48 42 62 56 47 41
167 155 153 148 144 141 135 137 133 125 136 129 101 87 68 64 90 105 112 115 119 123 132 135 127 131 142 154 161 141 90 80 109 136 197 335 5 5 33 49 60 55 42
150 142 146 144 146 145 139 137 138 138 135 123 117 109 89 65 58 79 109 108 122 130 127 126 126 128 125 123 124 128 140 140 155 144 161 197 261 308 358 26 43 45 50